Regional Weather Roundup
Issued by NWS

Home | Current Version | Previous Version | Text Only | Print | Product List | Glossary On
Versions: 1 2 3 4 5 6 7 8 9 10 11 12 13 14 15 16 17 18 19 20 21 22 23 24 25 26 27 28 29 30 31 32 33 34 35 36 37 38 39 40 41 42 43 44 45 46 47 48 49 50
000
ASUS44 KMEG 032110
RWRTN
TENNESSEE HOURLY STATE WEATHER ROUNDUP
NATIONAL WEATHER SERVICE MEMPHIS TN
400 PM CDT WED JUN 03 2015

TNZ002-004-019-021-049-052-054-088>092-032200-
WEST TENNESSEE

CITY           SKY/WX    TMP DP  RH WIND       PRES   REMARKS
MEMPHIS INTL   PTSUNNY   77  60  55 NE12      29.99F
NWS MEMPHIS      N/A     74 N/A N/A MISG        N/A
JACKSON        CLOUDY    74  57  55 N6        30.00F
DYERSBURG      PTSUNNY   73  52  46 NE6       30.00F
PARIS          PTSUNNY   73  57  56 VRB5      29.99F
LEXINGTON      CLOUDY    72  59  64 CALM      29.99S
$$

TNZ008-025-027-028-033-062-065-066-032200-
NORTH MIDDLE TENNESSEE

CITY           SKY/WX    TMP DP  RH WIND       PRES   REMARKS
NASHVILLE      PTSUNNY   74  60  61 VRB7      30.00F
CLARKSVILLE    PTSUNNY   74  57  55 VRB6      29.99F
SMYRNA         MOSUNNY   75  61  60 VRB6      30.00F
COOKEVILLE     SUNNY     75  64  69 VRB6      29.98S
CROSSVILLE     CLOUDY    73  59  61 W6        30.00F THUNDER
$$

TNZ061-075-076-078-094-096-097-032200-
SOUTH MIDDLE TENNESSEE

CITY           SKY/WX    TMP DP  RH WIND       PRES   REMARKS
FAYETTEVILLE   SUNNY    N/A N/A N/A MISG      29.97S
TULLAHOMA      MOSUNNY   75  63  64 N9        29.98F
WINCHESTER     PTSUNNY   75  63  64 NW6       29.96F
MCMINNVILLE    PTSUNNY   75  64  69 N7        29.98S
COLUMBIA       PTSUNNY   73  63  68 VRB3      29.97F
SHELBYVILLE    MOSUNNY   75  64  69 N9        29.98F
$$

TNZ017-018-042-046-047-032200-
NORTHEAST TENNESSEE

CITY           SKY/WX    TMP DP  RH WIND       PRES   REMARKS
TRI CITIES     LGT RAIN  72  60  66 E5        30.01F
ELIZABETHTON   PTCLDY    75  61  60 SW6       30.00F
$$

TNZ012-013-036-069-073-074-032200-
CENTRAL EAST TENNESSEE

CITY           SKY/WX    TMP DP  RH WIND       PRES   REMARKS
KNOXVILLE      PTSUNNY   77  60  55 E9        29.95F
OAK RIDGE      MOSUNNY   81  58  45 CALM      29.97F
GATLINBURG     PTCLDY    68  61  77 SW3       29.98F
MORRISTOWN     CLEAR     72  64  78 S6        30.00F
$$

TNZ083-085-099-032200-
SOUTHEAST TENNESSEE

CITY           SKY/WX    TMP DP  RH WIND       PRES   REMARKS
CHATTANOOGA    MOSUNNY   82  61  48 E17G25    29.95S
$$

SKY/WX REPORTED AS FAIR MEANS FEW OR NO CLOUDS BELOW
12 THOUSAND FEET.



USA.gov is the U.S. government's official web portal to all federal, state and local government web resources and services.